Tracking 33165 objects as of 7-Feb-2026
HD Live streaming from Space Station
objects crossing your sky now

ZORKIY-2M-5

Track ZORKIY-2M-5 now!
10-day predictions
ZORKIY-2M-5 is classified as:


NORAD ID: 67295
Int'l Code: 2025-313AZ
Perigee: 498.3 km
Apogee: 514.8 km
Inclination: 97.4 °
Period: 94.6 minutes
Semi major axis: 6877 km
RCS: Unknown
Launch date: December 28, 2025
Source: (TBD)
Launch site: VOSTOCHNY COSMODROME (VOSTO)

Uplink (MHz):
Downlink (MHz): 401.165/401.230*
Beacon (MHz):
Mode: 2k4 GMSK_USP
Call sign: A0X9A/9B
Status: Active

Your satellite tracking list
Your tracking list is empty




NASA's NSSDC Master Catalog

Two Line Element Set (TLE):
1 67295U 25313AZ  26038.64540107  .00010445  00000-0  45767-3 0  9995
2 67295  97.4060 115.4829 0012034  83.3403 276.9202 15.22125299  6257
Source of the keplerian elements: AFSPC